This demonstration page uses our WeatherBlox Daily Observations layout. Learn more.

Left ArrowRight Arrow

40.92501, -98.34201

Hourly Observations for September 2, 2022

Temp ( °F °C ) Dew Point ( °F °C ) Humidity (%) Winds ( mph kmh ) Pressure ( in mb ) Visibility ( mi km ) Precip ( " mm )
12:53 am 00:53 Clear 71 21.7 57 13.9 61 61 S 9 15 29.84 1011 10 16 0.00 0.00
1:53 am 01:53 Clear 69 20.6 57 13.9 65 65 S 7 11 29.85 1011 10 16 0.00 0.00
2:53 am 02:53 Clear 65 18.3 57 13.9 76 76 S 8 13 29.84 1011 10 16 0.00 0.00
3:53 am 03:53 Clear 68 20 59 15 73 73 S 9 15 29.83 1010 10 16 0.00 0.00
4:53 am 04:53 Clear 69 20.6 60 15.6 73 73 SSW 8 13 29.84 1010 10 16 0.00 0.00
5:53 am 05:53 Clear 68 20 61 16.1 78 78 SSW 7 11 29.85 1011 10 16 0.00 0.00
6:53 am 06:53 Clear 67 19.4 61 16.1 81 81 SSW 8 13 29.86 1011 10 16 0.00 0.00
7:53 am 07:53 Sunny 69 20.6 62 16.7 78 78 WSW 5 7 29.91 1013 10 16 0.00 0.00
8:53 am 08:53 Sunny 74 23.3 61 16.1 64 64 S 14 22 29.87 1012 10 16 0.00 0.00
9:53 am 09:53 Sunny 79 26.1 63 17.2 58 58 S 10 17 29.87 1012 10 16 0.00 0.00
10:53 am 10:53 Sunny 85 29.4 64 17.8 50 50 SSW 9 15 29.89 1012 10 16 0.00 0.00
11:53 am 11:53 Sunny 86 30 64 17.8 48 48 WSW 7 11 29.92 1013 10 16 0.00 0.00
12:53 pm 12:53 Sunny 85 29.4 65 18.3 51 51 SSW 10 17 29.92 1013 10 16 0.00 0.00
1:53 pm 13:53 Sunny 86 30 66 18.9 51 51 WNW 5 7 29.95 1014 10 16 0.00 0.00
2:53 pm 14:53 Sunny 88 31.1 66 18.9 48 48 SW 10 17 29.91 1013 10 16 0.00 0.00
3:53 pm 15:53 Sunny 95 35 64 17.8 36 36 WSW 10 17 29.90 1013 10 16 0.00 0.00
4:53 pm 16:53 Mostly Sunny 93 33.9 66 18.9 41 41 NNW 6 9 29.91 1013 10 16 0.00 0.00
5:53 pm 17:53 Sunny 93 33.9 66 18.9 41 41 VRB 7 11 29.92 1013 10 16 0.00 0.00
6:53 pm 18:53 Sunny 90 32.2 67 19.4 47 47 SSE 6 9 29.94 1014 10 16 0.00 0.00
7:53 pm 19:53 Sunny 84 28.9 69 20.6 61 61 N 7 11 29.97 1015 10 16 0.00 0.00
8:53 pm 20:53 Clear 78 25.6 64 17.8 62 62 N 5 7 30.01 1016 10 16 0.00 0.00
9:53 pm 21:53 Clear 75 23.9 63 17.2 66 66 N 7 11 30.04 1017 10 16 0.00 0.00
10:53 pm 22:53 Clear 73 22.8 63 17.2 71 71 N 8 13 30.06 1018 10 16 0.00 0.00
11:53 pm 23:53 Clear 73 22.8 56 13.3 55 55 NNE 10 17 30.09 1019 10 16 0.00 0.00

Powered by AerisWeather